{"data":{"norad_id":66390,"intl_designator":"2025-257L","name":"STARLINK-35665","alt_names":[],"object_type":"PAYLOAD","status":"ACTIVE","operator":null,"country":"US","launch_date":"2025-11-09","launch_site_code":"AFETR","launch_vehicle":null,"mission":null,"orbit_class":"UNKNOWN","rcs_meters":null,"size_class":null,"mass_kg":null,"dimensions":null,"purposes":["comms"],"wikipedia_slug":null,"has_3d_model":false,"image_url":null,"decayed_at":null,"tle_current":{"epoch":"2026-09-20T14:18:27.834336Z","epoch_age_seconds":85153,"freshness":"FRESH","line1":"1 66390U 25257L   26263.59615549  .00017740  00000+0  53490-3 0  9990","line2":"2 66390  53.1589  28.9157 0000744  77.4735 282.6351 15.34401221 49718","mean_motion":15.34401221,"eccentricity":7.44e-5,"inclination_deg":53.1589,"raan_deg":28.9157,"arg_perigee_deg":77.4735,"mean_anomaly_deg":282.6351,"bstar":0.0005349,"rev_number":4971,"period_min":93.847683401967,"perigee_km":462.19065289633,"apogee_km":463.20856938407,"semimajor_km":6840.8366111402,"source":"CELESTRAK","updated_at":"2026-09-21T09:00:35.887114Z"}}}